TimeCDT,TemperatureF,Dew PointF,Humidity,Sea Level PressureIn,VisibilityMPH,Wind Direction,Wind SpeedMPH,Gust SpeedMPH,PrecipitationIn,Events,Conditions,WindDirDegrees,DateUTC
12:53 AM,70.0,64.9,84,29.94,10.0,East,3.5,-,N/A,,Clear,90,2012-10-24 05:53:00
1:53 AM,68.0,64.9,90,29.93,10.0,Calm,Calm,-,N/A,,Clear,0,2012-10-24 06:53:00
2:53 AM,66.9,64.0,90,29.92,10.0,ESE,3.5,-,N/A,,Clear,110,2012-10-24 07:53:00
3:53 AM,66.0,64.0,93,29.91,10.0,Calm,Calm,-,N/A,,Clear,0,2012-10-24 08:53:00
4:53 AM,64.0,62.1,93,29.91,10.0,Calm,Calm,-,N/A,,Partly Cloudy,0,2012-10-24 09:53:00
5:53 AM,66.0,63.0,90,29.92,10.0,Calm,Calm,-,N/A,,Mostly Cloudy,0,2012-10-24 10:53:00
6:53 AM,66.9,63.0,87,29.93,10.0,Calm,Calm,-,N/A,,Partly Cloudy,0,2012-10-24 11:53:00
7:53 AM,64.9,63.0,93,29.94,6.0,Calm,Calm,-,N/A,,Clear,0,2012-10-24 12:53:00
8:53 AM,71.1,66.9,87,29.96,10.0,Calm,Calm,-,N/A,,Clear,0,2012-10-24 13:53:00
9:53 AM,81.0,66.9,62,29.96,10.0,South,12.7,-,N/A,,Clear,170,2012-10-24 14:53:00
10:53 AM,84.2,64.4,51,29.97,10.0,SSE,13.8,21.9,N/A,,Clear,160,2012-10-24 15:53:00
11:53 AM,87.1,63.0,44,29.94,10.0,South,13.8,20.7,N/A,,Clear,170,2012-10-24 16:53:00
12:53 PM,89.1,63.0,42,29.92,10.0,South,8.1,17.3,N/A,,Clear,180,2012-10-24 17:53:00
1:53 PM,91.9,61.0,35,29.88,10.0,SE,10.4,-,N/A,,Clear,130,2012-10-24 18:53:00
2:53 PM,93.0,59.0,32,29.86,10.0,ESE,6.9,16.1,N/A,,Clear,110,2012-10-24 19:53:00
3:53 PM,93.0,63.0,37,29.83,10.0,SSE,13.8,19.6,N/A,,Partly Cloudy,150,2012-10-24 20:53:00
4:53 PM,89.1,64.0,43,29.83,10.0,SE,13.8,18.4,N/A,,Clear,130,2012-10-24 21:53:00
5:53 PM,87.1,66.0,49,29.83,10.0,SE,12.7,23.0,N/A,,Clear,140,2012-10-24 22:53:00
6:53 PM,82.9,64.0,53,29.85,10.0,SE,16.1,21.9,N/A,,Clear,130,2012-10-24 23:53:00
7:53 PM,80.1,66.9,64,29.86,10.0,SE,13.8,20.7,N/A,,Clear,130,2012-10-25 00:53:00
8:53 PM,78.1,68.0,71,29.87,10.0,SE,10.4,-,N/A,,Clear,130,2012-10-25 01:53:00
9:53 PM,75.9,68.0,76,29.87,10.0,SE,6.9,-,N/A,,Clear,140,2012-10-25 02:53:00
10:53 PM,75.2,69.8,83,29.88,10.0,SSE,5.8,-,N/A,,Scattered Clouds,150,2012-10-25 03:53:00
11:01 PM,75.2,69.8,83,29.88,10.0,SSE,4.6,-,N/A,,Mostly Cloudy,150,2012-10-25 04:01:00
11:19 PM,73.4,68.0,83,29.88,10.0,SE,4.6,-,N/A,,Scattered Clouds,140,2012-10-25 04:19:00
11:53 PM,72.0,68.0,87,29.87,10.0,SE,3.5,-,N/A,,Clear,140,2012-10-25 04:53:00